ROMMA est une association bénévole à but non lucratif. Votre soutien est indispensable : ADHERER à ROMMA ou FAIRE un DON

Saint-Vallier-de-Thiey - (06, Alpes-Maritimes)

Côte-d'Azur (723 m)   Longitude: 06° 50' 21" E   Latitude: 43° 42' 8" N Station partenaire n°150
 

Détail journalier du     <<     >>

Température Precipitation Humidité Pression Vent Dir Rafale Dir. rafale
Heure (°C) (mm) (%) (hPa) (km/h) (km/h)
01:00 15.217510107SO44SO
02:00 15.70.867100914SO47S
03:00 14.80.670100813SO48SO
04:00 13.60.27810075N24N
05:00 12.607910062NNE11NO
06:00 11.708110042NNO10NO
07:00 13.307010043NNE13SE
08:00 14.106810044ONO21ONO
09:00 17.405210046N23NNE
10:00 19.105010043SSE15SSE
11:00 20.304510044ESE13ESE
12:00 21.304310054SE16SSO
13:00 21.405310055SSE18SE
14:00 21.505310056SSE16SE
15:00 21.305310056SE19SE
16:00 21.605410055SE15SE
17:00 21.105910064SSE18SE
18:00 19.806310064SSE13SSE
19:00 17.307110071S6SE
20:00 14.807810072NNO8NO
21:00 13.707810082NNO6NNO
22:00 13.507110083NNO8NNO
23:00 13.606610092ENE13NE
minuit 12.107310091SE5NE

Graphique du 02-10-2019

 

Serveur OMMA